This demonstration page uses our WeatherBlox Daily Observations layout. Learn more.

Left ArrowRight Arrow

Hourly Observations for April 26, 2016

Temp ( °F °C ) Dew Point ( °F °C ) Humidity (%) Winds ( mph kmh ) Pressure ( in mb ) Visibility ( mi km ) Precip ( " mm )
12:53 am 00:53 Clear 57 13.9 26 -3.3 30 30 NNW 6 9 30.04 1017 10 16 0.00 0.00
1:53 am 01:53 Clear 54 12.2 28 -2.2 37 37 NNW 8 13 30.04 1017 10 16 0.00 0.00
2:53 am 02:53 Clear 54 12.2 28 -2.2 37 37 NNW 9 15 30.04 1017 10 16 0.00 0.00
3:53 am 03:53 Clear 53 11.7 29 -1.7 40 40 NNW 9 15 30.03 1017 10 16 0.00 0.00
4:53 am 04:53 Clear 52 11.1 30 -1.1 43 43 N 9 15 30.02 1017 10 16 0.00 0.00
5:53 am 05:53 Clear 52 11.1 30 -1.1 43 43 NNW 10 17 30.03 1017 10 16 0.00 0.00
6:53 am 06:53 Sunny 52 11.1 30 -1.1 43 43 NNW 7 11 30.04 1017 10 16 0.00 0.00
7:53 am 07:53 Sunny 56 13.3 29 -1.7 36 36 N 12 19 30.04 1017 10 16 0.00 0.00
8:53 am 08:53 Sunny 59 15 29 -1.7 32 32 N 14 22 30.03 1017 10 16 0.00 0.00
9:53 am 09:53 Sunny 62 16.7 31 -0.6 31 31 NNW 13 20 30.01 1016 10 16 0.00 0.00
10:53 am 10:53 Sunny 64 17.8 32 0 30 30 NNW 10 17 30.01 1016 10 16 0.00 0.00
11:53 am 11:53 Sunny 67 19.4 28 -2.2 23 23 NNW 7 11 29.99 1016 10 16 0.00 0.00
12:53 pm 12:53 Sunny 68 20 22 -5.6 17 17 N 9 15 29.98 1015 10 16 0.00 0.00
1:53 pm 13:53 Sunny 70 21.1 24 -4.4 18 18 Calm 29.97 1015 10 16 0.00 0.00
2:53 pm 14:53 Mostly Sunny 69 20.6 25 -3.9 19 19 SSE 3 6 29.96 1014 10 16 0.00 0.00
3:53 pm 15:53 Mostly Cloudy 71 21.7 27 -2.8 19 19 E 5 7 29.94 1014 10 16 0.00 0.00
4:53 pm 16:53 Mostly Cloudy 70 21.1 29 -1.7 22 22 ESE 6 9 29.93 1014 10 16 0.00 0.00
5:53 pm 17:53 Cloudy 69 20.6 29 -1.7 22 22 SSE 3 6 29.93 1013 10 16 0.00 0.00
6:53 pm 18:53 Cloudy 68 20 35 1.7 30 30 SSE 5 7 29.92 1013 10 16 0.00 0.00
7:53 pm 19:53 Cloudy 68 20 34 1.1 28 28 S 3 6 29.93 1013 10 16 0.00 0.00
8:53 pm 20:53 Mostly Cloudy 64 17.8 41 5 43 43 Calm 29.93 1013 10 16 0.00 0.00
9:53 pm 21:53 Cloudy 65 18.3 36 2.2 34 34 SSW 7 11 29.93 1014 10 16 0.00 0.00
10:53 pm 22:53 Cloudy 61 16.1 43 6.1 52 52 Calm 29.94 1014 10 16 0.00 0.00
11:53 pm 23:53 Partly Cloudy 60 15.6 43 6.1 53 53 SW 5 7 29.92 1013 10 16 0.00 0.00

Powered by AerisWeather